Voltar ao catálogo

STARLINK-6286

AtivoComunicaçõesVLEO
NORAD 56558·PAYLOAD·🇺🇸 United States

Lançado May 14, 2023 de Cape Canaveral Space Force Station

Loading…

Próximas Passagens (próximas 24 horas)

TLE

AtualizadoSource: CelesTrak SupGP

Época: Sep 14, 2026, 21:42 UTC

1 56558C 23065BH  26257.90465278  .00026602  00000+0  96368-3 0  2575
2 56558  43.0020 238.4236 0001384 265.2032 314.4844 15.27560060    15

Acompanhe STARLINK-6286 em tempo real com AllMySat

Download on the App Store